[[{"header":{"parameterUnit":"m.s-1","parameterCategory":1,"la1":30.2991,"la2":30.254,"lo1":-89.0895,"lo2":-89.0444,"dy":0.0017,"dx":0.0017,"nx":28,"ny":28,"refTime":"2024-06-15T03:00:00:Z","depth":0,"parameterNumber":2,"parameterNumberName":"U-component_of_WINDS"},"data":[0,0,0,0,0,0,0,0,0,0,0,0,0,0,0,0,0,0,0,0,0,0,0,0,0,0,0,0,0,0,0,0,0,0,0,0,0,0,0,0,0,0,0,0,0,0,0,0,0,0,0,0,0,0,0,0,0,0,-3.1008,-3.1007,0,-3.0926,-3.0925,-3.0924,-3.0895,-3.0895,-3.0896,-3.0896,-3.0811,-3.0808,-3.0806,0,0,0,0,0,0,0,0,0,0,0,0,0,-3.1143,-3.1141,-3.1008,-3.1007,-3.1006,-3.0926,-3.0925,-3.0924,-3.0895,-3.0895,-3.0896,-3.0896,-3.0811,-3.0808,-3.0805,0,0,0,0,0,0,0,0,0,0,0,0,0,-3.1075,-3.114,-3.1009,-3.0982,-3.0979,-3.0926,-3.0925,-3.0923,-3.0895,-3.0895,-3.0896,-3.0896,-3.0812,-3.0809,-3.0805,-3.0772,0,0,-3.0793,-3.0791,0,0,0,0,0,0,0,0,-3.1079,-3.107,-3.0987,-3.0984,-3.098,-3.0921,-3.0941,-3.0872,-3.0895,-3.0927,-3.0896,-3.0896,-3.0847,-3.084,-3.0824,-3.0768,-3.0764,-3.0793,-3.079,-3.0789,-3.0788,0,0,0,0,0,0,0,-3.1084,-3.1074,-3.0976,-3.0986,-3.0982,-3.0975,-3.0966,-3.0928,-3.0885,-3.0924,-3.0922,-3.0912,-3.0845,-3.0827,-3.0821,-3.0763,-3.0793,-3.0789,-3.0787,-3.0786,-3.0679,-3.0679,0,0,0,0,0,0,-3.1093,-3.1078,-3.0978,-3.0973,-3.1032,-3.0973,-3.0962,-3.094,-3.0886,-3.0878,-3.0912,-3.0911,-3.0834,-3.0826,-3.0818,-3.0778,-3.0789,-3.0785,-3.0783,-3.068,-3.0679,-3.0679,0,0,0,0,0,0,-3.1096,-3.1084,-3.0982,-3.1025,-3.1011,-3.097,-3.0945,-3.0938,-3.092,-3.0877,-3.0869,-3.0902,-3.0834,-3.0824,-3.0784,-3.0774,-3.0783,-3.078,-3.0681,-3.068,-3.0679,-3.0695,0,0,0,0,0,0,-3.11,-3.1086,-3.1071,-3.1025,-3.1009,-3.0948,-3.0944,-3.0936,-3.0914,-3.0912,-3.0865,-3.0857,-3.0833,-3.079,-3.0781,-3.0769,-3.0777,-3.0681,-3.068,-3.0679,-3.0696,-3.0695,-3.0695,0,0,0,0,0,-3.1105,-3.1078,-3.1071,-3.1059,-3.0991,-3.0947,-3.0939,-3.0912,-3.0913,-3.0899,-3.0872,-3.0859,-3.0778,-3.0787,-3.0775,-3.0763,-3.0682,-3.068,-3.0679,-3.0696,-3.0695,-3.0695,0,0,0,0,0,0,-3.1123,-3.1072,-3.1063,-3.102,-3.0989,-3.0943,-3.0924,-3.0912,-3.0879,-3.0878,-3.0847,-3.0837,-3.08,-3.0778,-3.0788,-3.073,-3.0729,-3.0726,-3.0745,-3.0745,-3.0745,-3.075,-3.0774,0,0,0,0,0,-3.1123,-3.1092,-3.1049,-3.1015,-3.1,-3.0965,-3.0945,-3.0928,-3.0894,-3.088,-3.085,-3.0817,-3.0785,-3.0764,-3.0731,-3.0693,-3.0684,-3.0679,-3.0679,-3.0679,-3.0676,-3.0657,-3.0656,-3.0675,-3.0675,-3.0675,0,0,-3.1121,-3.1089,-3.1071,-3.1019,-3.0992,-3.0962,-3.0954,-3.0921,-3.0899,-3.0875,-3.0836,-3.0814,-3.0776,-3.0738,-3.0719,-3.0718,-3.0669,-3.0678,-3.0678,-3.0675,-3.0656,-3.0654,-3.0653,-3.0674,-3.0674,-3.0674,0,0,-3.1102,-3.1074,-3.1045,-3.1019,-3.098,-3.0957,-3.0951,-3.0908,-3.0892,-3.0853,-3.0836,-3.0809,-3.0753,-3.0727,-3.0707,-3.0684,-3.0671,-3.0674,-3.0672,-3.0655,-3.0653,-3.0652,-3.0645,-3.0642,-3.0672,-3.0672,-3.0672,0,-3.1104,-3.1057,-3.1031,-3.1,-3.0979,-3.0958,-3.0929,-3.0906,-3.0857,-3.0844,-3.0843,-3.0775,-3.0747,-3.0705,-3.07,-3.0683,-3.0676,-3.0678,-3.0655,-3.0654,-3.0652,-3.0645,-3.0642,-3.0672,-3.0672,-3.0672,-3.0672,0,-3.1062,-3.1031,-3.1012,-3.0968,-3.0944,-3.0915,-3.0885,-3.0865,-3.0851,-3.083,-3.0792,-3.076,-3.0722,-3.0711,-3.0695,-3.0667,-3.0667,-3.0662,-3.066,-3.0651,-3.0644,-3.0641,-3.0673,-3.0673,-3.0673,-3.0673,0,0,-3.1049,-3.0994,-3.0988,-3.0969,-3.0926,-3.0901,-3.0873,-3.0836,-3.082,-3.0789,-3.0765,-3.0721,-3.0716,-3.0694,-3.0676,-3.0661,-3.0647,-3.0657,-3.0656,-3.0657,-3.0615,-3.062,-3.0617,-3.0639,-3.0639,-3.0638,-3.0619,0,-3.1024,-3.0971,-3.0949,-3.0906,-3.0878,-3.0861,-3.0836,-3.0808,-3.0788,-3.0762,-3.074,-3.071,-3.0705,-3.0692,-3.0676,-3.0652,-3.0638,-3.0653,-3.0617,-3.0616,-3.0627,-3.0613,-3.0617,-3.06,-3.0616,-3.0615,-3.0615,0,-3.0987,-3.0958,-3.0913,-3.0878,-3.0865,-3.0843,-3.081,-3.0785,-3.0754,-3.0741,-3.0718,-3.0703,-3.0674,-3.0676,-3.0636,-3.0647,-3.0632,-3.0618,-3.0617,-3.0612,-3.0614,-3.0608,-3.0594,-3.0591,-3.061,-3.0611,-3.0611,0,-3.0984,-3.0933,-3.09,-3.0885,-3.0842,-3.0827,-3.0809,-3.0779,-3.076,-3.0731,-3.0719,-3.0688,-3.067,-3.0647,-3.0625,-3.0628,-3.0588,-3.0588,-3.0577,-3.0578,-3.0568,-3.0569,-3.0551,-3.0559,-3.0559,-3.0559,-3.0559,0,-3.0958,-3.0931,-3.0898,-3.0878,-3.0849,-3.0825,-3.0797,-3.0778,-3.0752,-3.0729,-3.0712,-3.0691,-3.0662,-3.0638,-3.0621,-3.0592,-3.0584,-3.0574,-3.0569,-3.0575,-3.0576,-3.0563,-3.0564,-3.0558,-3.0559,-3.0559,-3.0559,0,-3.0947,-3.0924,-3.0887,-3.0852,-3.0842,-3.0822,-3.0792,-3.0773,-3.0754,-3.0725,-3.0717,-3.0688,-3.0659,-3.0635,-3.0596,-3.0585,-3.0555,-3.055,-3.0566,-3.0563,-3.0555,-3.0556,-3.0528,-3.0523,-3.0534,-3.0534,-3.0534,0,-3.0932,-3.0912,-3.0875,-3.0859,-3.0841,-3.0815,-3.0796,-3.0774,-3.0755,-3.0721,-3.0707,-3.0677,-3.0652,-3.0607,-3.0582,-3.0554,-3.0548,-3.054,-3.0543,-3.0551,-3.0549,-3.055,-3.0549,-3.054,-3.054,-3.054,-3.054,0,-3.0909,-3.0899,-3.0873,-3.0844,-3.0823,-3.0799,-3.0774,-3.0762,-3.0735,-3.0716,-3.0687,-3.0668,-3.063,-3.0602,-3.0571,-3.0554,-3.0543,-3.054,-3.0536,-3.0541,-3.0551,-3.0547,-3.0565,-3.054,-3.054,-3.054,-3.054,-3.054,-3.0895,-3.0878,-3.085,-3.0823,-3.0802,-3.0781,-3.0762,-3.0743,-3.0718,-3.0686,-3.0675,-3.0646,-3.0619,-3.0578,-3.0561,-3.0538,-3.0537,-3.0531,-3.053,-3.0529,-3.053,-3.0556,-3.0533,-3.0533,-3.0533,-3.0533,-3.0533,0,-3.0872,-3.0854,-3.0829,-3.0797,-3.0776,-3.0769,-3.0743,-3.0726,-3.0701,-3.0677,-3.0654,-3.0623,-3.0596,-3.0571,-3.0544,-3.0531,-3.0526,-3.0525,-3.0525,-3.0522,-3.0532,-3.0539,-3.053,-3.053,-3.053,-3.053,-3.053,-3.053,-3.0857,-3.0827,-3.0815,-3.0777,-3.0759,-3.0731,-3.0717,-3.0698,-3.068,-3.0645,-3.0624,-3.0608,-3.0585,-3.0557,-3.0533,-3.0526,-3.0517,-3.0518,-3.051,-3.052,-3.0521,-3.0521,-3.0527,-3.0516,-3.0516,-3.0502,-3.0501,-3.0501]},{"header":{"parameterUnit":"m.s-1","parameterCategory":1,"la1":30.2991,"la2":30.254,"lo1":-89.0895,"lo2":-89.0444,"dy":0.0017,"dx":0.0017,"nx":28,"ny":28,"refTime":"2024-06-15T03:00:00:Z","depth":0,"parameterNumber":3,"parameterNumberName":"V-component_of_WINDS"},"data":[0,0,0,0,0,0,0,0,0,0,0,0,0,0,0,0,0,0,0,0,0,0,0,0,0,0,0,0,0,0,0,0,0,0,0,0,0,0,0,0,0,0,0,0,0,0,0,0,0,0,0,0,0,0,0,0,0,0,2.0938,2.0938,0,2.0924,2.0924,2.0924,2.0962,2.0963,2.0964,2.0965,2.0944,2.0943,2.0941,0,0,0,0,0,0,0,0,0,0,0,0,0,2.0991,2.0989,2.0938,2.0938,2.0938,2.0924,2.0924,2.0924,2.0961,2.0963,2.0964,2.0966,2.0945,2.0943,2.0941,0,0,0,0,0,0,0,0,0,0,0,0,0,2.0971,2.0989,2.0938,2.0955,2.0956,2.0924,2.0924,2.0924,2.0961,2.0963,2.0965,2.0966,2.0946,2.0943,2.0941,2.089,0,0,2.0933,2.0932,0,0,0,0,0,0,0,0,2.0972,2.0969,2.0953,2.0954,2.0955,2.0947,2.0935,2.0912,2.0961,2.0959,2.0965,2.0967,2.0943,2.0941,2.0934,2.0889,2.0888,2.0933,2.0931,2.093,2.093,0,0,0,0,0,0,0,2.0974,2.097,2.0932,2.0952,2.0954,2.0961,2.096,2.0931,2.0941,2.0959,2.0962,2.096,2.0944,2.0937,2.0934,2.0887,2.0933,2.0931,2.0929,2.0928,2.0796,2.0794,0,0,0,0,0,0,2.0974,2.0971,2.0933,2.0932,2.0969,2.0959,2.0958,2.0948,2.0942,2.0943,2.0959,2.0962,2.094,2.0937,2.0933,2.0871,2.093,2.0928,2.0926,2.0798,2.0796,2.0794,0,0,0,0,0,0,2.0975,2.097,2.0933,2.0952,2.0948,2.0956,2.0944,2.0946,2.0939,2.0941,2.0943,2.095,2.0941,2.0937,2.09,2.0871,2.0927,2.0924,2.0801,2.0797,2.0795,2.0747,0,0,0,0,0,0,2.0976,2.097,2.0952,2.0952,2.0947,2.0902,2.0942,2.0945,2.0935,2.0939,2.0933,2.0933,2.0942,2.0904,2.0898,2.0868,2.0923,2.0803,2.0799,2.0796,2.0751,2.0743,2.0735,0,0,0,0,0,2.0978,2.0938,2.0951,2.0946,2.0925,2.09,2.0898,2.091,2.0933,2.0914,2.0915,2.0934,2.0876,2.09,2.0893,2.0863,2.0805,2.08,2.0796,2.0754,2.0744,2.0736,0,0,0,0,0,0,2.0933,2.0939,2.0953,2.0913,2.0906,2.0907,2.0883,2.09,2.0885,2.0889,2.0904,2.0902,2.0861,2.0859,2.0885,2.0812,2.0844,2.0838,2.0814,2.0805,2.0797,2.0797,2.092,0,0,0,0,0,2.0919,2.09,2.0906,2.0869,2.0866,2.0875,2.0865,2.0875,2.0868,2.0865,2.0864,2.0854,2.0834,2.082,2.0801,2.0752,2.0749,2.0728,2.072,2.0713,2.0707,2.0678,2.0667,2.0779,2.0779,2.0779,0,0,2.0888,2.0889,2.0876,2.086,2.0857,2.0834,2.0872,2.0848,2.0831,2.086,2.0825,2.0824,2.0814,2.077,2.0751,2.0767,2.0676,2.0708,2.0703,2.0699,2.0672,2.0662,2.0652,2.0776,2.0776,2.0777,0,0,2.0821,2.0822,2.0791,2.0786,2.0781,2.0787,2.078,2.0779,2.0779,2.0745,2.0766,2.0746,2.0711,2.0702,2.0693,2.0623,2.0638,2.0617,2.0574,2.0546,2.0537,2.0529,2.0501,2.0491,2.0611,2.0611,2.0611,0,2.0784,2.0754,2.0772,2.0746,2.0737,2.0766,2.0732,2.0727,2.0714,2.0706,2.0726,2.0682,2.0677,2.063,2.0613,2.0606,2.0595,2.0616,2.0537,2.053,2.0523,2.0496,2.0485,2.0608,2.0608,2.0608,2.0609,0,2.0706,2.0684,2.066,2.0649,2.0638,2.0608,2.062,2.0606,2.0618,2.0621,2.0584,2.0581,2.0561,2.0551,2.0562,2.0505,2.0515,2.0535,2.0567,2.0509,2.0484,2.0474,2.0604,2.0605,2.0606,2.0606,0,0,2.0608,2.0609,2.0599,2.0594,2.059,2.0572,2.0543,2.0526,2.0512,2.0503,2.0477,2.0447,2.0466,2.0455,2.0466,2.0441,2.0382,2.0465,2.0464,2.0446,2.0315,2.0297,2.0285,2.0394,2.0392,2.0391,2.0315,0,2.054,2.0492,2.0507,2.0458,2.0436,2.0464,2.0438,2.0431,2.0434,2.0415,2.0417,2.0395,2.0423,2.0417,2.0394,2.0394,2.0355,2.04,2.0366,2.0364,2.0364,2.0273,2.0254,2.0183,2.0306,2.0304,2.0303,0,2.0453,2.0442,2.039,2.0389,2.0381,2.0358,2.0342,2.0325,2.0317,2.032,2.0309,2.0324,2.0293,2.0328,2.0283,2.0313,2.03,2.0298,2.0295,2.029,2.0328,2.0261,2.0161,2.0149,2.0288,2.0289,2.0291,0,2.0383,2.0355,2.032,2.0315,2.0314,2.0296,2.0294,2.0289,2.0277,2.0263,2.0255,2.0237,2.0226,2.021,2.0219,2.0244,2.0171,2.0207,2.017,2.017,2.0151,2.0151,2.0043,2.0148,2.0148,2.0149,2.0149,0,2.0303,2.0269,2.0289,2.0267,2.0229,2.0247,2.0209,2.021,2.0205,2.0181,2.0204,2.0181,2.0196,2.0174,2.018,2.014,2.0136,2.0135,2.0137,2.0131,2.0131,2.012,2.0124,2.0146,2.0146,2.0147,2.0147,0,2.0217,2.0229,2.0192,2.0194,2.0194,2.0166,2.0166,2.0145,2.015,2.012,2.0114,2.0121,2.0096,2.0104,2.0077,2.0081,2.0029,2.0039,2.0032,2.0033,1.9994,1.9996,1.9873,1.9856,1.9975,1.9974,1.9973,0,2.0163,2.0138,2.0138,2.0125,2.0122,2.0102,2.009,2.0106,2.0093,2.0082,2.0061,2.0038,2.0021,1.9978,1.9979,1.9958,1.9964,1.9923,1.9961,1.9956,1.996,1.996,1.9955,1.9914,1.9913,1.9912,1.9911,0,2.0066,2.0073,2.0057,2.0042,2.0028,2.0017,2.0007,1.9994,2.001,1.9993,1.9969,1.9956,1.9928,1.9904,1.9884,1.988,1.9896,1.9899,1.9889,1.9881,1.9877,1.9875,2.0007,1.9901,1.9902,1.9903,1.9903,1.9904,1.9992,1.997,1.9967,1.9947,1.9942,1.9933,1.9912,1.9915,1.9896,1.9876,1.9887,1.9858,1.9849,1.9825,1.9817,1.9793,1.9808,1.9794,1.979,1.9785,1.9778,1.9884,1.979,1.979,1.979,1.979,1.9791,0,1.9893,1.9892,1.9874,1.9861,1.9845,1.9866,1.9856,1.984,1.9815,1.9807,1.9789,1.976,1.9737,1.9736,1.9714,1.9694,1.97,1.9687,1.9687,1.9684,1.9768,1.9777,1.9682,1.9682,1.9682,1.9682,1.9682,1.9682,1.9839,1.9803,1.981,1.977,1.9769,1.9743,1.9735,1.9725,1.9718,1.9685,1.9667,1.9668,1.9662,1.9639,1.9617,1.9618,1.9606,1.9589,1.9592,1.9668,1.9679,1.9689,1.9698,1.9587,1.9587,1.951,1.9509,1.9509]}]]